Beaumont, TX

7:05 PM CDT on September 18, 2014 (GMT -0500)
BeaumontEOC | Change Station
CLOSE
Current Station
Personal Weather Station
Location: Beaumont, TX
Elevation: 33 ft
Nearby Weather Stations

Elev 33 ft 30.08 °N, 94.10 °W | Updated 3 seconds ago

Overcast
Overcast
75.4 °F
Feels Like 73 °F
N
4.3
Wind Variable Wind from WNW
Gusts 4.3 mph

Today
High -- | Low -- °F
--% Chance of Precip.
Yesterday
High -- | Low -- °F
Precip. -- in
7:02 AM 7:17 PM
Waning Crescent, 23% visible
Pressure 29.89 in
Visibility 10.0 miles
Clouds Scattered Clouds 2600 ft
Scattered Clouds 3300 ft
Scattered Clouds 6000 ft
Heat Index 73 °F
Dew Point 75 °F
Humidity 100%
Rainfall 0.30 in
Snow Depth Not available.
UV 0.0 out of 12
Pollen .50 out of 12
Ozone Good
PM2.5 Good
Flu Activity Not available.
METAR KBMT 182355Z AUTO 11003KT 10SM DZ SCT026 SCT033 SCT060 23/22 A2989 RMK AO2 T02300217 10253 20227

More Conditions Fewer Conditions

Pressure 29.89 in
Visibility 10.0 miles
Clouds Scattered Clouds 2600 ft
Scattered Clouds 3300 ft
Scattered Clouds 6000 ft
Heat Index 73 °F
Dew Point 75 °F
Humidity 100%
Rainfall 0.30 in
Snow Depth Not available.
UV 0.0 out of 12
Pollen .50 out of 12
Ozone Good
PM2.5 Good
Flu Activity Not available.
METAR KBMT 182355Z AUTO 11003KT 10SM DZ SCT026 SCT033 SCT060 23/22 A2989 RMK AO2 T02300217 10253 20227

More Conditions Fewer Conditions

10-Day Weather Forecast

Almanac

Astronomy

Sep. 18, 2014 Rise Set
Actual Time 7:02 AM CDT 7:17 PM CDT
Civil Twilight 6:38 AM CDT 7:41 PM CDT
Nautical Twilight 6:10 AM CDT 8:09 PM CDT
Astronomical Twilight 5:42 AM CDT 8:38 PM CDT
Moon 2:11 AM CDT (9/18) 3:54 PM CDT (9/18)
Length of Visible Light 13h 03m
Length of Day
12h 15m
Tomorrow will be 1m 48s shorter.
Waning Crescent, 23% of the Moon is Illuminated
Today
Waning Crescent
Sep 24
New
Oct 1
First Quarter
Oct 8
Full
Oct 15
Last Quarter

Today's Extremes

State Highs State Lows

Community

WunderPhotos

Upload Photos

1,754,500 photos uploaded!

WunderBlogs® & News

Nearby

Air Quality

  Air Quality AQ Index Pollutant
Yesterday Good
OZONE
Yesterday Good
PM2.5
Current Good
OZONE
Current Good
PM2.5
Thursday Good
OZONE
Thursday Good
PM10
Friday Good
OZONE
Friday Good
PM10
Saturday Good
OZONE
Saturday Good
PM10
Sunday Good
OZONE
Sunday Good
PM10

Snow Depth

Station Depth Elevation
No new snow has been reported.

Earthquake Activity

City Distance Mag. Time & Date
No recent earthquake activity has been reported nearby.
Minimum magnitude displayed is 2.5.

Coastal Water Temperatures

Place Temperature
Sabine Pass North, TX 82.0 °F
Port Arthur, TX 82.9 °F
Calcasieu Pass, LA 82.9 °F
Rollover Pass, TX 81.0 °F
Galveston Bay (North Jetty), TX 82.0 °F

Nearby Weather Stations